SCP
0 0 0 0 0 0 0 0 0 0 1 1 1 1 1 1 1 1 1 1 1 0 0 0 0 0 0 0 0 0 0 0 0 0 0 0 0 0 0 0 0 0 0
-0 0 0 0 0 0 0 0 0 0 1 1 2 1 1 0 0 1 1 1 1 0 0 0 0 0 0 0 0 0 0 0 0 0 0 0 0 0 0 0 0 0 0
0 0 0 0 0 0 0 0 0 1 1 1 0 0 0 0 0 0 1 0 0 0 0 0 0 0 0 0 0 0 0 0 0 0 0 0 0 0 0 0 0 0 0
0 0 0 -0 -0 0 0 0 1 1 1 1 0 0 0 0 0 0 0 0 0 0 0 0 0 0 0 0 0 0 0 0 0 0 0 0 0 0 0 0 0 0 0
0 0 -0 -0 0 0 0 1 1 1 0 0 0 0 0 0 0 0 0 0 0 0 0 0 0 0 0 0 0 0 0 0 0 0 0 0 0 0 0 0 0 0 0
0 0 0 0 0 0 1 1 1 0 0 0 0 0 0 0 0 0 0 0 0 0 0 0 0 0 0 0 0 0 0 0 0 0 0 0 0 0 0 0 0 0 0
0 0 0 0 0 1 1 0 0 0 0 0 0 0 0 0 0 0 0 0 0 0 0 0 0 0 0 0 0 0 0 0 0 0 0 -0 0 0 0 0 0 0 0
0 0 0 0 0 0 0 0 0 0 0 0 0 0 0 0 0 0 0 0 0 0 0 0 0 0 0 0 0 0 0 0 0 0 -0 -0 -0 0 0 0 0 0 0
0 0 0 0 0 0 0 0 0 0 0 0 0 0 0 0 0 0 0 0 0 0 0 0 0 0 0 0 0 0 0 0 0 -0 0 0 -0 -0 -0 0 0 0 0
0 0 0 -0 0 -0 -0 -0 0 0 0 0 0 0 0 0 0 0 0 0 0 0 0 0 0 0 0 0 0 0 0 0 0 0 0 0 -0 -0 -0 -0 0 0 0
0 0 0 -0 -0 0 0 0 0 0 0 0 0 0 0 0 0 0 0 0 0 0 -0 0 0 0 0 0 0 0 0 0 0 0 0 0 -0 -0 0 0 0 0 0
0 0 -0 -0 -0 0 0 0 0 -0 0 0 0 0 0 0 0 0 -0 -0 0 -0 -0 0 0 0 0 0 0 0 0 0 0 0 -0 0 0 0 0 0 0 0 0
0 -0 -0 -0 -0 -0 0 0 0 0 0 0 0 0 0 0 0 0 -0 -0 -0 -0 0 0 0 0 0 0 0 0 -0 0 0 0 0 0 0 0 0 0 0 0 0
-0 -0 -0 -0 0 -0 0 -0 0 0 0 0 0 0 0 0 0 0 -0 -0 -0 -0 0 -0 0 0 0 -0 0 0 0 -0 -0 -0 0 0 0 0 0 0 0 0 0
-0 -0 -0 -0 -0 0 0 0 0 0 0 0 0 0 0 0 0 0 0 -0 0 0 -0 -0 -0 -0 0 0 0 0 0 0 0 -0 -0 0 -0 0 0 0 0 0 0
-0 -0 -0 -0 -0 -0 -0 -0 -0 0 0 0 0 0 0 0 -0 0 0 0 0 0 0 -0 -0 -0 -0 -0 0 0 0 0 0 0 0 0 0 0 0 0 0 0 0
-0 -0 -0 -0 -0 -0 -0 0 0 0 -0 0 0 0 0 -0 -0 -0 -0 0 0 0 0 0 -0 -0 -0 0 0 -0 0 0 0 0 0 0 0 0 0 0 0 0 0
0 -0 -0 -0 -0 -0 0 0 0 -0 -0 -0 0 -0 -0 -0 -0 -0 0 0 0 0 0 0 0 0 -0 0 -0 0 0 0 0 0 0 0 0 0 0 0 0 0 0
0 -0 0 -0 -0 0 0 0 -0 -0 -0 -0 -0 -0 -0 -0 -0 -0 -0 0 0 0 0 0 0 0 0 -0 -0 -0 0 0 0 0 0 0 0 0 0 0 0 0 0
0 -0 0 0 -0 -0 0 -0 -0 -0 -0 -0 -0 -0 -0 -0 -0 -0 -0 -0 0 0 0 0 0 0 0 0 -0 -0 0 0 0 0 0 -0 -0 0 0 0 0 0 0
0 0 0 0 0 0 -0 -0 -0 -0 0 -0 -0 -0 0 -0 -0 -0 -0 -0 0 0 0 0 0 0 0 -0 -0 -0 0 0 0 0 -0 0 0 0 0 0 0 0 0
0 0 0 0 0 0 -0 -0 -0 0 0 -0 -0 0 -0 0 -0 -0 -0 -0 0 0 0 0 0 0 0 -0 0 -0 -0 0 0 0 -0 0 0 0 0 0 0 -0 0
0 0 0 0 0 0 -0 -0 -0 -0 -0 -0 -0 -0 -0 0 0 0 0 0 0 0 0 0 0 0 0 0 -0 -0 -0 0 0 -0 -0 -0 0 0 0 -0 -0 0 0
0 0 0 0 0 0 0 -0 0 0 -0 -0 -0 -0 -0 0 0 0 0 -0 -0 0 0 0 0 0 0 0 0 0 0 0 -0 -0 0 0 0 0 -0 -0 -0 0 0
0 0 0 0 0 0 0 0 0 0 0 -0 -0 0 0 0 0 0 0 0 0 0 0 0 0 0 0 0 0 0 0 0 0 0 0 0 0 0 0 -0 0 -0 -0
0 0 0 0 0 0 0 0 -0 -0 -0 0 0 0 0 0 0 0 0 0 0 0 0 0 0 0 0 0 0 0 0 -0 0 0 0 0 -0 -0 0 -0 -0 -0 -0
Wind_Speed_500mb
95 91 102 93 88 89 82 62 52 59 67 57 63 70 68 62 58 49 42 38 36 38 33 28 38 36 29 27 31 37 43 46 40 39 40 36 41 41 40 36 33 29 35
94 75 70 74 78 59 56 55 61 59 68 59 60 65 64 58 46 43 41 41 41 30 34 30 33 31 30 33 35 39 45 45 37 34 36 28 35 39 43 40 33 30 33
76 84 77 68 73 68 54 58 54 48 57 60 63 60 45 38 41 42 42 46 33 20 22 24 26 28 36 35 37 40 39 37 31 30 27 11 14 16 36 42 37 35 35
88 83 74 75 74 68 63 56 50 46 56 56 51 52 50 50 48 39 29 27 21 21 23 23 28 33 37 36 38 30 29 27 27 25 31 27 6 12 7 23 37 35 33
93 95 91 77 61 47 51 52 47 46 45 40 37 40 42 44 37 34 28 24 23 27 31 32 33 32 34 36 29 25 22 21 24 29 28 36 35 28 17 8 18 37 37
51 50 55 56 54 42 56 49 46 37 33 30 28 31 37 42 40 34 29 29 29 32 30 33 33 35 30 22 19 18 18 20 23 26 30 33 34 35 35 27 10 29 35
59 55 53 48 45 38 50 47 40 37 31 30 33 34 37 38 36 34 30 31 31 32 32 32 32 24 18 16 13 9 10 13 14 19 24 28 32 28 28 33 14 28 30
56 61 60 50 38 48 45 42 39 38 38 38 39 38 35 33 27 25 27 25 25 24 25 22 15 15 16 15 10 10 11 12 12 15 17 21 24 31 24 29 32 25 31
56 39 30 34 49 49 44 41 40 43 44 43 41 38 34 27 26 28 24 22 22 16 16 12 11 10 10 10 13 18 18 13 16 17 17 20 23 30 32 31 26 39 32
27 28 35 48 49 45 46 43 43 49 48 45 41 35 30 26 23 22 20 18 14 13 13 10 8 7 8 11 13 19 12 12 14 13 15 20 23 28 30 28 24 33 40
37 45 51 52 50 50 49 48 52 53 50 43 36 31 26 20 18 15 16 16 17 16 15 9 4 2 6 12 12 16 15 12 13 12 11 15 21 26 27 28 29 37 37
49 55 56 56 53 54 56 54 54 52 46 38 31 25 22 18 15 13 14 18 19 18 14 6 4 6 13 15 14 16 17 18 16 12 19 17 18 21 25 31 33 36 35
57 59 58 55 57 61 59 58 52 47 40 35 33 28 19 13 14 14 14 17 19 16 8 3 6 13 13 7 6 15 22 25 27 22 15 17 19 21 22 20 25 32 34
64 64 59 58 63 61 59 55 50 43 40 37 32 22 17 11 13 18 12 27 22 10 3 2 7 9 7 4 9 12 14 17 25 20 13 16 18 20 27 26 29 37 36
63 64 62 64 63 59 58 54 47 45 44 39 30 24 18 13 19 26 25 25 18 12 7 2 6 11 8 9 9 6 5 6 8 14 12 18 22 16 17 18 29 41 50
53 65 65 65 64 63 58 52 49 49 42 36 31 18 13 14 25 28 22 21 19 12 7 1 5 11 12 9 8 9 11 9 13 14 14 15 18 22 19 28 42 48 56
61 71 69 67 64 62 55 52 48 46 40 34 27 17 12 21 27 33 24 21 20 16 11 2 3 9 10 10 8 15 13 14 17 13 12 10 7 15 29 38 33 33 41
51 71 69 64 59 56 52 50 49 43 35 32 27 22 18 20 25 36 26 24 19 16 13 4 1 5 8 9 9 14 18 21 19 13 12 14 19 21 28 26 31 43 51
57 66 64 62 60 54 53 52 50 42 39 36 27 22 21 22 27 32 34 26 24 19 13 5 1 2 6 7 9 12 18 22 21 20 21 27 31 25 28 42 51 60 63
54 64 61 64 62 57 58 54 53 44 39 37 29 24 22 25 24 25 28 26 22 20 15 10 5 4 2 2 8 9 11 20 24 25 28 33 41 35 32 46 57 64 61
49 64 66 66 62 62 62 57 54 51 39 34 31 29 27 22 21 21 20 20 22 21 18 14 11 7 9 5 10 11 7 13 27 31 35 39 43 43 43 42 44 53 61
61 69 68 67 65 66 63 57 55 49 42 38 35 30 25 25 21 19 21 20 21 22 22 20 18 11 13 11 14 15 10 9 27 36 40 41 46 43 32 40 45 45 52
69 69 72 68 67 70 63 54 50 49 48 39 40 35 30 25 21 18 18 17 18 21 24 24 20 15 19 18 20 21 16 14 21 38 39 42 45 41 27 36 35 43 53
70 74 75 68 71 73 63 48 49 49 47 41 41 37 34 28 21 16 15 9 11 19 22 23 21 21 22 25 27 25 26 25 29 38 44 42 44 41 35 33 35 40 46
45 66 68 68 70 70 64 52 50 54 48 39 41 42 38 28 20 18 19 12 9 7 8 12 14 19 25 25 23 20 23 33 33 45 45 42 41 44 45 40 40 38 43
32 43 59 62 64 64 64 56 54 57 49 42 42 44 43 33 23 16 24 21 14 10 8 4 3 9 16 20 23 18 22 35 37 49 48 48 46 49 49 45 43 44 45
Wind_Direction_500mb
275 280 286 286 284 284 282 274 247 249 240 241 237 239 242 243 243 233 225 222 228 234 211 225 234 242 263 283 276 274 277 281 277 274 261 248 249 245 238 241 245 242 227
278 280 288 289 283 290 279 255 244 251 247 237 239 239 239 235 233 221 217 221 222 221 229 238 231 245 271 279 281 281 278 276 270 261 257 259 249 242 235 239 239 238 224
272 279 285 286 293 293 262 240 245 243 236 235 234 234 230 216 201 199 209 211 213 221 219 230 234 262 273 277 287 284 277 274 265 255 237 203 224 235 239 241 239 230 223
269 272 274 281 284 280 247 243 235 242 236 233 232 229 223 204 199 204 213 208 219 207 223 237 251 272 266 280 288 273 267 259 250 236 224 220 213 199 232 233 229 222 214
267 271 272 276 290 271 243 232 236 234 230 230 223 222 216 210 201 195 198 217 211 217 225 235 250 260 273 281 268 265 263 255 241 239 230 223 228 240 258 292 216 208 206
271 269 277 280 280 262 234 226 219 213 210 206 202 202 197 195 195 194 197 201 216 226 230 238 256 270 274 264 262 260 259 251 242 235 230 228 230 234 233 236 229 202 205
281 283 280 280 277 231 203 198 195 190 183 180 175 180 189 191 190 189 195 202 216 218 229 253 267 268 248 256 254 267 261 249 241 236 235 234 230 230 231 226 225 200 200
281 281 276 261 219 187 185 182 176 171 165 166 170 175 177 172 178 193 198 204 213 230 249 264 247 231 246 249 246 251 263 251 242 236 230 227 220 220 214 217 222 192 187
276 275 239 199 177 175 175 172 165 159 159 164 169 172 176 182 189 183 194 211 237 247 249 208 215 227 244 247 237 234 246 242 247 242 239 231 220 214 214 221 223 219 187
230 204 180 167 165 167 164 160 161 159 162 165 169 171 172 175 188 201 212 217 221 192 185 190 201 229 268 270 243 240 240 225 229 234 243 228 218 220 218 216 223 204 211
193 173 166 160 160 161 159 159 161 161 162 168 172 177 176 180 181 198 203 195 168 159 154 151 162 245 276 286 250 237 232 217 220 232 236 222 212 214 214 216 206 204 214
172 164 162 158 159 161 160 160 163 162 163 166 169 173 158 155 175 172 166 169 159 162 152 137 44 329 300 292 249 240 235 230 238 265 239 224 216 214 216 216 204 206 201
163 161 162 161 161 159 160 163 164 165 165 162 156 147 151 169 173 174 171 161 159 160 152 74 338 323 312 295 263 253 244 245 237 240 231 214 213 210 201 179 180 196 206
164 162 164 162 161 161 163 164 164 166 163 161 164 161 176 177 181 168 152 163 152 151 157 342 321 338 334 288 294 289 266 271 225 211 211 204 199 197 195 199 207 206 195
163 167 165 164 163 162 163 162 163 161 156 163 168 179 182 188 182 167 147 152 150 176 191 221 357 3 355 340 338 10 87 90 161 195 196 194 183 185 191 195 182 177 164
168 169 168 168 166 165 163 162 163 166 170 174 180 179 205 205 180 174 166 172 171 169 168 191 11 10 14 15 45 68 66 81 123 137 163 186 199 196 185 174 163 161 158
178 173 173 173 171 170 165 165 162 167 177 185 175 193 191 181 176 171 169 176 179 171 176 282 15 21 26 36 67 73 77 102 126 129 133 143 157 182 171 155 159 162 174
187 176 174 174 174 173 169 167 171 172 182 182 185 179 164 169 177 180 178 175 174 171 196 251 24 27 26 44 66 90 94 96 109 123 119 120 134 159 150 156 166 167 171
193 187 173 173 173 171 169 173 179 178 184 180 189 177 165 173 176 185 194 191 188 181 211 223 274 328 25 62 87 100 104 104 100 115 106 112 125 147 145 150 153 154 157
203 192 180 179 176 176 178 177 181 179 185 190 181 168 167 165 160 166 179 190 198 208 213 222 224 207 187 92 120 121 106 111 112 120 119 123 129 131 126 140 148 152 156
210 198 191 184 181 182 183 183 186 188 182 180 176 167 177 173 165 170 184 191 205 209 220 223 218 217 191 186 154 142 118 115 128 120 135 135 139 137 132 122 129 151 152
204 203 197 193 190 188 187 189 192 184 186 183 174 170 182 183 177 188 194 200 210 213 215 217 216 219 186 178 157 150 140 122 143 132 140 142 149 151 139 140 136 139 148
201 204 200 196 196 194 192 192 191 185 189 192 185 182 188 189 191 195 198 201 208 214 214 212 212 208 182 174 160 149 158 147 147 144 140 146 147 159 151 152 149 151 161
197 201 200 197 196 196 197 197 189 187 193 199 196 190 195 192 193 193 191 188 178 189 203 206 208 199 187 176 173 167 164 162 154 150 152 152 158 166 164 158 171 169 165
201 196 197 197 197 196 198 196 189 189 197 203 202 199 199 192 178 176 181 168 152 161 170 191 198 199 187 178 179 172 180 171 172 162 158 164 167 160 170 172 176 176 176
173 188 204 199 200 200 199 195 192 194 198 202 202 202 199 194 187 180 183 164 158 169 163 153 160 189 184 178 172 164 168 168 171 172 171 172 176 178 179 177 185 184 179
Wind_Speed_850mb
95 91 102 93 88 89 82 62 52 59 67 57 63 70 68 62 58 49 42 38 36 38 33 28 38 36 29 27 31 37 43 46 40 39 40 36 41 41 40 36 33 29 35
94 75 70 74 78 59 56 55 61 59 68 59 60 65 64 58 46 43 41 41 41 30 34 30 33 31 30 33 35 39 45 45 37 34 36 28 35 39 43 40 33 30 33
76 84 77 68 73 68 54 58 54 48 57 60 63 60 45 38 41 42 42 46 33 20 22 24 26 28 36 35 37 40 39 37 31 30 27 11 14 16 36 42 37 35 35
88 83 74 75 74 68 63 56 50 46 56 56 51 52 50 50 48 39 29 27 21 21 23 23 28 33 37 36 38 30 29 27 27 25 31 27 6 12 7 23 37 35 33
93 95 91 77 61 47 51 52 47 46 45 40 37 40 42 44 37 34 28 24 23 27 31 32 33 32 34 36 29 25 22 21 24 29 28 36 35 28 17 8 18 37 37
51 50 55 56 54 42 56 49 46 37 33 30 28 31 37 42 40 34 29 29 29 32 30 33 33 35 30 22 19 18 18 20 23 26 30 33 34 35 35 27 10 29 35
59 55 53 48 45 38 50 47 40 37 31 30 33 34 37 38 36 34 30 31 31 32 32 32 32 24 18 16 13 9 10 13 14 19 24 28 32 28 28 33 14 28 30
56 61 60 50 38 48 45 42 39 38 38 38 39 38 35 33 27 25 27 25 25 24 25 22 15 15 16 15 10 10 11 12 12 15 17 21 24 31 24 29 32 25 31
56 39 30 34 49 49 44 41 40 43 44 43 41 38 34 27 26 28 24 22 22 16 16 12 11 10 10 10 13 18 18 13 16 17 17 20 23 30 32 31 26 39 32
27 28 35 48 49 45 46 43 43 49 48 45 41 35 30 26 23 22 20 18 14 13 13 10 8 7 8 11 13 19 12 12 14 13 15 20 23 28 30 28 24 33 40
37 45 51 52 50 50 49 48 52 53 50 43 36 31 26 20 18 15 16 16 17 16 15 9 4 2 6 12 12 16 15 12 13 12 11 15 21 26 27 28 29 37 37
49 55 56 56 53 54 56 54 54 52 46 38 31 25 22 18 15 13 14 18 19 18 14 6 4 6 13 15 14 16 17 18 16 12 19 17 18 21 25 31 33 36 35
57 59 58 55 57 61 59 58 52 47 40 35 33 28 19 13 14 14 14 17 19 16 8 3 6 13 13 7 6 15 22 25 27 22 15 17 19 21 22 20 25 32 34
64 64 59 58 63 61 59 55 50 43 40 37 32 22 17 11 13 18 12 27 22 10 3 2 7 9 7 4 9 12 14 17 25 20 13 16 18 20 27 26 29 37 36
63 64 62 64 63 59 58 54 47 45 44 39 30 24 18 13 19 26 25 25 18 12 7 2 6 11 8 9 9 6 5 6 8 14 12 18 22 16 17 18 29 41 50
53 65 65 65 64 63 58 52 49 49 42 36 31 18 13 14 25 28 22 21 19 12 7 1 5 11 12 9 8 9 11 9 13 14 14 15 18 22 19 28 42 48 56
61 71 69 67 64 62 55 52 48 46 40 34 27 17 12 21 27 33 24 21 20 16 11 2 3 9 10 10 8 15 13 14 17 13 12 10 7 15 29 38 33 33 41
51 71 69 64 59 56 52 50 49 43 35 32 27 22 18 20 25 36 26 24 19 16 13 4 1 5 8 9 9 14 18 21 19 13 12 14 19 21 28 26 31 43 51
57 66 64 62 60 54 53 52 50 42 39 36 27 22 21 22 27 32 34 26 24 19 13 5 1 2 6 7 9 12 18 22 21 20 21 27 31 25 28 42 51 60 63
54 64 61 64 62 57 58 54 53 44 39 37 29 24 22 25 24 25 28 26 22 20 15 10 5 4 2 2 8 9 11 20 24 25 28 33 41 35 32 46 57 64 61
49 64 66 66 62 62 62 57 54 51 39 34 31 29 27 22 21 21 20 20 22 21 18 14 11 7 9 5 10 11 7 13 27 31 35 39 43 43 43 42 44 53 61
61 69 68 67 65 66 63 57 55 49 42 38 35 30 25 25 21 19 21 20 21 22 22 20 18 11 13 11 14 15 10 9 27 36 40 41 46 43 32 40 45 45 52
69 69 72 68 67 70 63 54 50 49 48 39 40 35 30 25 21 18 18 17 18 21 24 24 20 15 19 18 20 21 16 14 21 38 39 42 45 41 27 36 35 43 53
70 74 75 68 71 73 63 48 49 49 47 41 41 37 34 28 21 16 15 9 11 19 22 23 21 21 22 25 27 25 26 25 29 38 44 42 44 41 35 33 35 40 46
45 66 68 68 70 70 64 52 50 54 48 39 41 42 38 28 20 18 19 12 9 7 8 12 14 19 25 25 23 20 23 33 33 45 45 42 41 44 45 40 40 38 43
32 43 59 62 64 64 64 56 54 57 49 42 42 44 43 33 23 16 24 21 14 10 8 4 3 9 16 20 23 18 22 35 37 49 48 48 46 49 49 45 43 44 45
Wind_Direction_850mb
275 280 286 286 284 284 282 274 247 249 240 241 237 239 242 243 243 233 225 222 228 234 211 225 234 242 263 283 276 274 277 281 277 274 261 248 249 245 238 241 245 242 227
278 280 288 289 283 290 279 255 244 251 247 237 239 239 239 235 233 221 217 221 222 221 229 238 231 245 271 279 281 281 278 276 270 261 257 259 249 242 235 239 239 238 224
272 279 285 286 293 293 262 240 245 243 236 235 234 234 230 216 201 199 209 211 213 221 219 230 234 262 273 277 287 284 277 274 265 255 237 203 224 235 239 241 239 230 223
269 272 274 281 284 280 247 243 235 242 236 233 232 229 223 204 199 204 213 208 219 207 223 237 251 272 266 280 288 273 267 259 250 236 224 220 213 199 232 233 229 222 214
267 271 272 276 290 271 243 232 236 234 230 230 223 222 216 210 201 195 198 217 211 217 225 235 250 260 273 281 268 265 263 255 241 239 230 223 228 240 258 292 216 208 206
271 269 277 280 280 262 234 226 219 213 210 206 202 202 197 195 195 194 197 201 216 226 230 238 256 270 274 264 262 260 259 251 242 235 230 228 230 234 233 236 229 202 205
281 283 280 280 277 231 203 198 195 190 183 180 175 180 189 191 190 189 195 202 216 218 229 253 267 268 248 256 254 267 261 249 241 236 235 234 230 230 231 226 225 200 200
281 281 276 261 219 187 185 182 176 171 165 166 170 175 177 172 178 193 198 204 213 230 249 264 247 231 246 249 246 251 263 251 242 236 230 227 220 220 214 217 222 192 187
276 275 239 199 177 175 175 172 165 159 159 164 169 172 176 182 189 183 194 211 237 247 249 208 215 227 244 247 237 234 246 242 247 242 239 231 220 214 214 221 223 219 187
230 204 180 167 165 167 164 160 161 159 162 165 169 171 172 175 188 201 212 217 221 192 185 190 201 229 268 270 243 240 240 225 229 234 243 228 218 220 218 216 223 204 211
193 173 166 160 160 161 159 159 161 161 162 168 172 177 176 180 181 198 203 195 168 159 154 151 162 245 276 286 250 237 232 217 220 232 236 222 212 214 214 216 206 204 214
172 164 162 158 159 161 160 160 163 162 163 166 169 173 158 155 175 172 166 169 159 162 152 137 44 329 300 292 249 240 235 230 238 265 239 224 216 214 216 216 204 206 201
163 161 162 161 161 159 160 163 164 165 165 162 156 147 151 169 173 174 171 161 159 160 152 74 338 323 312 295 263 253 244 245 237 240 231 214 213 210 201 179 180 196 206
164 162 164 162 161 161 163 164 164 166 163 161 164 161 176 177 181 168 152 163 152 151 157 342 321 338 334 288 294 289 266 271 225 211 211 204 199 197 195 199 207 206 195
163 167 165 164 163 162 163 162 163 161 156 163 168 179 182 188 182 167 147 152 150 176 191 221 357 3 355 340 338 10 87 90 161 195 196 194 183 185 191 195 182 177 164
168 169 168 168 166 165 163 162 163 166 170 174 180 179 205 205 180 174 166 172 171 169 168 191 11 10 14 15 45 68 66 81 123 137 163 186 199 196 185 174 163 161 158
178 173 173 173 171 170 165 165 162 167 177 185 175 193 191 181 176 171 169 176 179 171 176 282 15 21 26 36 67 73 77 102 126 129 133 143 157 182 171 155 159 162 174
187 176 174 174 174 173 169 167 171 172 182 182 185 179 164 169 177 180 178 175 174 171 196 251 24 27 26 44 66 90 94 96 109 123 119 120 134 159 150 156 166 167 171
193 187 173 173 173 171 169 173 179 178 184 180 189 177 165 173 176 185 194 191 188 181 211 223 274 328 25 62 87 100 104 104 100 115 106 112 125 147 145 150 153 154 157
203 192 180 179 176 176 178 177 181 179 185 190 181 168 167 165 160 166 179 190 198 208 213 222 224 207 187 92 120 121 106 111 112 120 119 123 129 131 126 140 148 152 156
210 198 191 184 181 182 183 183 186 188 182 180 176 167 177 173 165 170 184 191 205 209 220 223 218 217 191 186 154 142 118 115 128 120 135 135 139 137 132 122 129 151 152
204 203 197 193 190 188 187 189 192 184 186 183 174 170 182 183 177 188 194 200 210 213 215 217 216 219 186 178 157 150 140 122 143 132 140 142 149 151 139 140 136 139 148
201 204 200 196 196 194 192 192 191 185 189 192 185 182 188 189 191 195 198 201 208 214 214 212 212 208 182 174 160 149 158 147 147 144 140 146 147 159 151 152 149 151 161
197 201 200 197 196 196 197 197 189 187 193 199 196 190 195 192 193 193 191 188 178 189 203 206 208 199 187 176 173 167 164 162 154 150 152 152 158 166 164 158 171 169 165
201 196 197 197 197 196 198 196 189 189 197 203 202 199 199 192 178 176 181 168 152 161 170 191 198 199 187 178 179 172 180 171 172 162 158 164 167 160 170 172 176 176 176
173 188 204 199 200 200 199 195 192 194 198 202 202 202 199 194 187 180 183 164 158 169 163 153 160 189 184 178 172 164 168 168 171 172 171 172 176 178 179 177 185 184 179